Time,TemperatureF,DewpointF,PressureIn,WindDirection,WindDirectionDegrees,WindSpeedMPH,WindSpeedGustMPH,Humidity,HourlyPrecipIn,Conditions,Clouds,dailyrainin,SoftwareType,DateUTC
2013-02-26 00:01:00,49.0,-99.9,29.92,NE,43,24.0,34.0,-999,-99.99,,,-99.99,,2013-02-26 05:01:00,
2013-02-26 00:12:00,50.0,-99.9,29.93,NE,44,20.0,28.0,-999,-99.99,,,-99.99,,2013-02-26 05:12:00,
2013-02-26 00:22:00,50.0,-99.9,29.93,NE,47,19.0,31.0,-999,-99.99,,,-99.99,,2013-02-26 05:22:00,
2013-02-26 00:32:00,51.0,-99.9,29.93,NE,50,19.0,25.0,-999,-99.99,,,-99.99,,2013-02-26 05:32:00,
2013-02-26 00:43:00,51.0,-99.9,29.93,NE,49,20.0,26.0,-999,-99.99,,,-99.99,,2013-02-26 05:43:00,
2013-02-26 00:52:00,52.0,-99.9,29.91,NE,53,22.0,29.0,-999,-99.99,,,-99.99,,2013-02-26 05:52:00,
2013-02-26 01:02:00,52.0,-99.9,29.91,NE,42,18.0,26.0,-999,-99.99,,,-99.99,,2013-02-26 06:02:00,
2013-02-26 01:11:00,52.0,-99.9,29.92,NE,44,19.0,23.0,-999,-99.99,,,-99.99,,2013-02-26 06:11:00,
2013-02-26 01:22:00,52.0,-99.9,29.92,NE,50,18.0,24.0,-999,-99.99,,,-99.99,,2013-02-26 06:22:00,
2013-02-26 01:32:00,52.0,-99.9,29.91,NE,51,20.0,26.0,-999,-99.99,,,-99.99,,2013-02-26 06:32:00,
2013-02-26 01:42:00,53.0,-99.9,29.92,NE,51,19.0,23.0,-999,-99.99,,,-99.99,,2013-02-26 06:42:00,
2013-02-26 01:52:00,53.0,-99.9,29.91,NE,51,20.0,25.0,-999,-99.99,,,-99.99,,2013-02-26 06:52:00,
2013-02-26 02:01:00,53.0,-99.9,29.91,NE,52,18.0,25.0,-999,-99.99,,,-99.99,,2013-02-26 07:01:00,
2013-02-26 02:11:00,53.0,-99.9,29.90,NE,54,19.0,26.0,-999,-99.99,,,-99.99,,2013-02-26 07:11:00,
2013-02-26 02:22:00,53.0,-99.9,29.89,NE,50,20.0,26.0,-999,-99.99,,,-99.99,,2013-02-26 07:22:00,
2013-02-26 02:32:00,53.0,-99.9,29.88,NE,49,18.0,23.0,-999,-99.99,,,-99.99,,2013-02-26 07:32:00,
2013-02-26 02:42:00,54.0,-99.9,29.87,NE,53,19.0,26.0,-999,-99.99,,,-99.99,,2013-02-26 07:42:00,
2013-02-26 02:52:00,54.0,-99.9,29.87,NE,51,20.0,25.0,-999,-99.99,,,-99.99,,2013-02-26 07:52:00,
2013-02-26 03:02:00,54.0,-99.9,29.86,NE,49,19.0,25.0,-999,-99.99,,,-99.99,,2013-02-26 08:02:00,
2013-02-26 03:11:00,54.0,-99.9,29.85,NE,48,18.0,24.0,-999,-99.99,,,-99.99,,2013-02-26 08:11:00,
2013-02-26 03:22:00,54.0,-99.9,29.85,NE,49,17.0,21.0,-999,-99.99,,,-99.99,,2013-02-26 08:22:00,
2013-02-26 03:32:00,55.0,-99.9,29.84,NE,48,18.0,24.0,-999,-99.99,,,-99.99,,2013-02-26 08:32:00,
2013-02-26 03:42:00,55.0,-99.9,29.83,NE,49,20.0,24.0,-999,-99.99,,,-99.99,,2013-02-26 08:42:00,
2013-02-26 03:52:00,55.0,-99.9,29.82,NE,49,18.0,23.0,-999,-99.99,,,-99.99,,2013-02-26 08:52:00,
2013-02-26 04:02:00,55.0,-99.9,29.83,NE,52,15.0,23.0,-999,-99.99,,,-99.99,,2013-02-26 09:02:00,
2013-02-26 04:11:00,56.0,-99.9,29.82,ENE,64,15.0,20.0,-999,-99.99,,,-99.99,,2013-02-26 09:11:00,
2013-02-26 04:21:00,56.0,-99.9,29.82,ENE,63,15.0,18.0,-999,-99.99,,,-99.99,,2013-02-26 09:21:00,
2013-02-26 04:32:00,56.0,-99.9,29.81,ENE,72,15.0,18.0,-999,-99.99,,,-99.99,,2013-02-26 09:32:00,
2013-02-26 04:43:00,56.0,-99.9,29.80,NE,46,15.0,19.0,-999,-99.99,,,-99.99,,2013-02-26 09:43:00,
2013-02-26 04:52:00,56.0,-99.9,29.80,NE,48,16.0,19.0,-999,-99.99,,,-99.99,,2013-02-26 09:52:00,
2013-02-26 05:01:00,56.0,-99.9,29.79,NE,52,17.0,23.0,-999,-99.99,,,-99.99,,2013-02-26 10:01:00,
2013-02-26 05:11:00,57.0,-99.9,29.78,NE,55,17.0,21.0,-999,-99.99,,,-99.99,,2013-02-26 10:11:00,
2013-02-26 05:21:00,57.0,-99.9,29.78,NE,55,15.0,19.0,-999,-99.99,,,-99.99,,2013-02-26 10:21:00,
2013-02-26 05:32:00,57.0,-99.9,29.78,NE,53,19.0,22.0,-999,-99.99,,,-99.99,,2013-02-26 10:32:00,
2013-02-26 05:42:00,58.0,-99.9,29.77,NE,56,11.0,13.0,-999,-99.99,,,-99.99,,2013-02-26 10:42:00,
2013-02-26 05:52:00,58.0,-99.9,29.77,ENE,58,11.0,14.0,-999,-99.99,,,-99.99,,2013-02-26 10:52:00,
2013-02-26 06:01:00,58.0,-99.9,29.77,ENE,66,14.0,20.0,-999,-99.99,,,-99.99,,2013-02-26 11:01:00,
2013-02-26 06:12:00,59.0,-99.9,29.77,ENE,71,16.0,20.0,-999,-99.99,,,-99.99,,2013-02-26 11:12:00,
2013-02-26 06:22:00,59.0,-99.9,29.76,ENE,70,15.0,17.0,-999,-99.99,,,-99.99,,2013-02-26 11:22:00,
2013-02-26 06:32:00,59.0,-99.9,29.77,East,82,14.0,18.0,-999,-99.99,,,-99.99,,2013-02-26 11:32:00,
2013-02-26 06:42:00,60.0,-99.9,29.75,ENE,76,18.0,20.0,-999,-99.99,,,-99.99,,2013-02-26 11:42:00,
2013-02-26 06:53:00,59.0,-99.9,29.75,ENE,75,16.0,18.0,-999,-99.99,,,-99.99,,2013-02-26 11:53:00,
2013-02-26 07:02:00,60.0,-99.9,29.74,East,82,16.0,19.0,-999,-99.99,,,-99.99,,2013-02-26 12:02:00,
2013-02-26 07:11:00,60.0,-99.9,29.74,East,82,15.0,17.0,-999,-99.99,,,-99.99,,2013-02-26 12:11:00,
2013-02-26 07:22:00,60.0,-99.9,29.74,East,92,13.0,16.0,-999,-99.99,,,-99.99,,2013-02-26 12:22:00,
2013-02-26 07:33:00,61.0,-99.9,29.74,ESE,116,16.0,18.0,-999,-99.99,,,-99.99,,2013-02-26 12:33:00,
2013-02-26 07:42:00,60.0,-99.9,29.72,SE,136,13.0,16.0,-999,-99.99,,,-99.99,,2013-02-26 12:42:00,
2013-02-26 07:53:00,60.0,-99.9,29.73,SE,140,14.0,16.0,-999,-99.99,,,-99.99,,2013-02-26 12:53:00,
2013-02-26 08:02:00,61.0,-99.9,29.73,SSE,147,12.0,16.0,-999,-99.99,,,-99.99,,2013-02-26 13:02:00,
2013-02-26 08:11:00,60.0,-99.9,29.72,SE,132,14.0,16.0,-999,-99.99,,,-99.99,,2013-02-26 13:11:00,
2013-02-26 08:22:00,60.0,-99.9,29.72,ESE,123,18.0,23.0,-999,-99.99,,,-99.99,,2013-02-26 13:22:00,
2013-02-26 08:32:00,60.0,-99.9,29.72,ESE,116,20.0,23.0,-999,-99.99,,,-99.99,,2013-02-26 13:32:00,
2013-02-26 08:42:00,60.0,-99.9,29.73,SE,130,16.0,20.0,-999,-99.99,,,-99.99,,2013-02-26 13:42:00,
2013-02-26 08:52:00,60.0,-99.9,29.73,SE,136,14.0,18.0,-999,-99.99,,,-99.99,,2013-02-26 13:52:00,
2013-02-26 09:02:00,62.0,-99.9,29.73,SSE,155,13.0,19.0,-999,-99.99,,,-99.99,,2013-02-26 14:02:00,
2013-02-26 09:11:00,64.0,-99.9,29.73,SSE,163,17.0,23.0,-999,-99.99,,,-99.99,,2013-02-26 14:11:00,
2013-02-26 09:22:00,64.0,-99.9,29.72,SSE,167,13.0,18.0,-999,-99.99,,,-99.99,,2013-02-26 14:22:00,
2013-02-26 09:32:00,65.0,-99.9,29.72,SSW,193,10.0,15.0,-999,-99.99,,,-99.99,,2013-02-26 14:32:00,
2013-02-26 09:42:00,65.0,-99.9,29.72,SSE,150,10.0,14.0,-999,-99.99,,,-99.99,,2013-02-26 14:42:00,
2013-02-26 09:52:00,63.0,-99.9,29.72,SE,141,15.0,19.0,-999,-99.99,,,-99.99,,2013-02-26 14:52:00,
2013-02-26 10:02:00,62.0,-99.9,29.71,SE,141,12.0,14.0,-999,-99.99,,,-99.99,,2013-02-26 15:02:00,
2013-02-26 10:12:00,62.0,-99.9,29.71,SSE,147,14.0,18.0,-999,-99.99,,,-99.99,,2013-02-26 15:12:00,
2013-02-26 10:22:00,63.0,-99.9,29.70,SE,138,18.0,23.0,-999,-99.99,,,-99.99,,2013-02-26 15:22:00,
2013-02-26 10:32:00,61.0,-99.9,29.69,SE,135,15.0,19.0,-999,-99.99,,,-99.99,,2013-02-26 15:32:00,
2013-02-26 10:42:00,62.0,-99.9,29.70,SSE,147,11.0,14.0,-999,-99.99,,,-99.99,,2013-02-26 15:42:00,
2013-02-26 10:52:00,62.0,-99.9,29.71,SSE,159,13.0,16.0,-999,-99.99,,,-99.99,,2013-02-26 15:52:00,
2013-02-26 11:02:00,64.0,-99.9,29.71,South,173,18.0,24.0,-999,-99.99,,,-99.99,,2013-02-26 16:02:00,
2013-02-26 11:11:00,65.0,-99.9,29.70,South,176,18.0,23.0,-999,-99.99,,,-99.99,,2013-02-26 16:11:00,
2013-02-26 11:22:00,66.0,-99.9,29.71,South,186,18.0,24.0,-999,-99.99,,,-99.99,,2013-02-26 16:22:00,
2013-02-26 11:32:00,68.0,-99.9,29.71,SSW,213,23.0,37.0,-999,-99.99,,,-99.99,,2013-02-26 16:32:00,
2013-02-26 11:42:00,67.0,-99.9,29.70,South,190,18.0,28.0,-999,-99.99,,,-99.99,,2013-02-26 16:42:00,
2013-02-26 11:52:00,67.0,-99.9,29.69,SSW,196,13.0,25.0,-999,-99.99,,,-99.99,,2013-02-26 16:52:00,
2013-02-26 12:01:00,66.0,-99.9,29.68,South,190,18.0,26.0,-999,-99.99,,,-99.99,,2013-02-26 17:01:00,
2013-02-26 12:11:00,67.0,-99.9,29.67,SSW,200,16.0,28.0,-999,-99.99,,,-99.99,,2013-02-26 17:11:00,
2013-02-26 12:22:00,67.0,-99.9,29.67,SSW,201,14.0,21.0,-999,-99.99,,,-99.99,,2013-02-26 17:22:00,
2013-02-26 12:32:00,68.0,-99.9,29.65,SSW,199,16.0,24.0,-999,-99.99,,,-99.99,,2013-02-26 17:32:00,
2013-02-26 12:42:00,68.0,-99.9,29.64,SSW,192,17.0,23.0,-999,-99.99,,,-99.99,,2013-02-26 17:42:00,
2013-02-26 12:52:00,68.0,-99.9,29.64,SSW,197,15.0,24.0,-999,-99.99,,,-99.99,,2013-02-26 17:52:00,
2013-02-26 13:02:00,69.0,-99.9,29.63,SSW,205,18.0,26.0,-999,-99.99,,,-99.99,,2013-02-26 18:02:00,
2013-02-26 13:12:00,69.0,-99.9,29.62,SSW,201,11.0,28.0,-999,-99.99,,,-99.99,,2013-02-26 18:12:00,
2013-02-26 13:22:00,70.0,-99.9,29.62,SSW,210,14.0,34.0,-999,-99.99,,,-99.99,,2013-02-26 18:22:00,
2013-02-26 13:32:00,70.0,-99.9,29.61,SSW,213,24.0,34.0,-999,-99.99,,,-99.99,,2013-02-26 18:32:00,
2013-02-26 13:42:00,70.0,-99.9,29.60,SSW,203,24.0,35.0,-999,-99.99,,,-99.99,,2013-02-26 18:42:00,
2013-02-26 13:53:00,70.0,-99.9,29.60,SSW,203,22.0,35.0,-999,-99.99,,,-99.99,,2013-02-26 18:53:00,
2013-02-26 14:02:00,69.0,-99.9,29.60,SSW,201,27.0,44.0,-999,-99.99,,,-99.99,,2013-02-26 19:02:00,
2013-02-26 14:11:00,69.0,-99.9,29.59,SSW,203,22.0,36.0,-999,-99.99,,,-99.99,,2013-02-26 19:11:00,
2013-02-26 14:22:00,68.0,-99.9,29.58,SSW,194,25.0,37.0,-999,-99.99,,,-99.99,,2013-02-26 19:22:00,
2013-02-26 14:32:00,69.0,-99.9,29.58,SSW,202,21.0,35.0,-999,-99.99,,,-99.99,,2013-02-26 19:32:00,
2013-02-26 14:42:00,69.0,-99.9,29.59,SSW,196,26.0,34.0,-999,-99.99,,,-99.99,,2013-02-26 19:42:00,
2013-02-26 14:52:00,69.0,-99.9,29.59,SSW,202,21.0,30.0,-999,-99.99,,,-99.99,,2013-02-26 19:52:00,
2013-02-26 15:01:00,70.0,-99.9,29.59,SSW,201,21.0,30.0,-999,-99.99,,,-99.99,,2013-02-26 20:01:00,
2013-02-26 15:11:00,70.0,-99.9,29.58,SSW,206,18.0,30.0,-999,-99.99,,,-99.99,,2013-02-26 20:11:00,
2013-02-26 15:22:00,70.0,-99.9,29.58,SSW,207,16.0,28.0,-999,-99.99,,,-99.99,,2013-02-26 20:22:00,
2013-02-26 15:32:00,69.0,-99.9,29.59,SW,214,22.0,32.0,-999,-99.99,,,-99.99,,2013-02-26 20:32:00,
2013-02-26 15:42:00,69.0,-99.9,29.59,SW,218,25.0,33.0,-999,-99.99,,,-99.99,,2013-02-26 20:42:00,
2013-02-26 15:52:00,69.0,-99.9,29.59,SW,214,21.0,33.0,-999,-99.99,,,-99.99,,2013-02-26 20:52:00,
2013-02-26 16:02:00,68.0,-99.9,29.59,SW,214,21.0,31.0,-999,-99.99,,,-99.99,,2013-02-26 21:02:00,
2013-02-26 16:11:00,68.0,-99.9,29.60,SSW,211,23.0,35.0,-999,-99.99,,,-99.99,,2013-02-26 21:11:00,
2013-02-26 16:21:00,68.0,-99.9,29.59,SW,217,24.0,35.0,-999,-99.99,,,-99.99,,2013-02-26 21:21:00,
2013-02-26 16:31:00,67.0,-99.9,29.60,SW,216,21.0,33.0,-999,-99.99,,,-99.99,,2013-02-26 21:31:00,
2013-02-26 16:41:00,67.0,-99.9,29.60,SW,218,19.0,26.0,-999,-99.99,,,-99.99,,2013-02-26 21:41:00,
2013-02-26 16:51:00,67.0,-99.9,29.59,SSW,213,16.0,28.0,-999,-99.99,,,-99.99,,2013-02-26 21:51:00,
2013-02-26 17:01:00,66.0,-99.9,29.59,SW,214,15.0,26.0,-999,-99.99,,,-99.99,,2013-02-26 22:01:00,
2013-02-26 17:11:00,67.0,-99.9,29.59,SW,222,17.0,26.0,-999,-99.99,,,-99.99,,2013-02-26 22:11:00,
2013-02-26 17:21:00,67.0,-99.9,29.59,SSW,210,16.0,25.0,-999,-99.99,,,-99.99,,2013-02-26 22:21:00,
2013-02-26 17:32:00,66.0,-99.9,29.59,SW,223,14.0,26.0,-999,-99.99,,,-99.99,,2013-02-26 22:32:00,
2013-02-26 17:42:00,66.0,-99.9,29.59,SW,222,16.0,23.0,-999,-99.99,,,-99.99,,2013-02-26 22:42:00,
2013-02-26 17:52:00,65.0,-99.9,29.59,SW,214,16.0,23.0,-999,-99.99,,,-99.99,,2013-02-26 22:52:00,
2013-02-26 18:01:00,65.0,-99.9,29.59,SW,217,10.0,17.0,-999,-99.99,,,-99.99,,2013-02-26 23:01:00,
2013-02-26 18:11:00,65.0,-99.9,29.59,SSW,211,12.0,19.0,-999,-99.99,,,-99.99,,2013-02-26 23:11:00,
2013-02-26 18:21:00,65.0,-99.9,29.59,SSW,213,14.0,20.0,-999,-99.99,,,-99.99,,2013-02-26 23:21:00,
2013-02-26 18:32:00,65.0,-99.9,29.59,SW,217,11.0,17.0,-999,-99.99,,,-99.99,,2013-02-26 23:32:00,
2013-02-26 18:42:00,64.0,-99.9,29.60,SSW,209,10.0,15.0,-999,-99.99,,,-99.99,,2013-02-26 23:42:00,
2013-02-26 18:52:00,64.0,-99.9,29.60,SW,216,11.0,15.0,-999,-99.99,,,-99.99,,2013-02-26 23:52:00,
2013-02-26 19:02:00,64.0,-99.9,29.60,SW,215,12.0,17.0,-999,-99.99,,,-99.99,,2013-02-27 00:02:00,
2013-02-26 19:11:00,64.0,-99.9,29.61,SSW,213,11.0,17.0,-999,-99.99,,,-99.99,,2013-02-27 00:11:00,
2013-02-26 19:22:00,64.0,-99.9,29.61,SW,214,10.0,16.0,-999,-99.99,,,-99.99,,2013-02-27 00:22:00,
2013-02-26 19:32:00,64.0,-99.9,29.61,SW,216,11.0,15.0,-999,-99.99,,,-99.99,,2013-02-27 00:32:00,
2013-02-26 19:42:00,63.0,-99.9,29.62,SW,220,8.0,13.0,-999,-99.99,,,-99.99,,2013-02-27 00:42:00,
2013-02-26 19:52:00,63.0,-99.9,29.63,SSW,212,9.0,12.0,-999,-99.99,,,-99.99,,2013-02-27 00:52:00,
2013-02-26 20:01:00,63.0,-99.9,29.63,SSW,213,10.0,13.0,-999,-99.99,,,-99.99,,2013-02-27 01:01:00,
2013-02-26 20:11:00,64.0,-99.9,29.63,SW,222,11.0,15.0,-999,-99.99,,,-99.99,,2013-02-27 01:11:00,
2013-02-26 20:22:00,63.0,-99.9,29.64,SW,215,9.0,14.0,-999,-99.99,,,-99.99,,2013-02-27 01:22:00,
2013-02-26 20:32:00,63.0,-99.9,29.64,SW,219,9.0,14.0,-999,-99.99,,,-99.99,,2013-02-27 01:32:00,
2013-02-26 20:42:00,63.0,-99.9,29.65,SW,214,9.0,13.0,-999,-99.99,,,-99.99,,2013-02-27 01:42:00,
2013-02-26 20:52:00,63.0,-99.9,29.65,SW,221,7.0,11.0,-999,-99.99,,,-99.99,,2013-02-27 01:52:00,
2013-02-26 21:02:00,63.0,-99.9,29.65,SW,220,7.0,11.0,-999,-99.99,,,-99.99,,2013-02-27 02:02:00,
2013-02-26 21:16:00,63.0,-99.9,29.65,SW,217,6.0,11.0,-999,-99.99,,,-99.99,,2013-02-27 02:16:00,
2013-02-26 21:24:00,63.0,-99.9,29.65,SSW,208,8.0,11.0,-999,-99.99,,,-99.99,,2013-02-27 02:24:00,
2013-02-26 21:32:00,63.0,-99.9,29.66,SW,217,9.0,12.0,-999,-99.99,,,-99.99,,2013-02-27 02:32:00,
2013-02-26 21:42:00,63.0,-99.9,29.67,SW,222,9.0,13.0,-999,-99.99,,,-99.99,,2013-02-27 02:42:00,
2013-02-26 21:52:00,62.0,-99.9,29.67,SW,224,9.0,14.0,-999,-99.99,,,-99.99,,2013-02-27 02:52:00,
2013-02-26 22:02:00,64.0,-99.9,29.67,SW,221,9.0,13.0,-999,-99.99,,,-99.99,,2013-02-27 03:02:00,
2013-02-26 22:11:00,65.0,-99.9,29.67,SW,224,10.0,22.0,-999,-99.99,,,-99.99,,2013-02-27 03:11:00,
2013-02-26 22:22:00,65.0,-99.9,29.68,SW,228,11.0,16.0,-999,-99.99,,,-99.99,,2013-02-27 03:22:00,
2013-02-26 22:32:00,65.0,-99.9,29.67,SW,225,9.0,16.0,-999,-99.99,,,-99.99,,2013-02-27 03:32:00,
2013-02-26 22:42:00,65.0,-99.9,29.67,SW,227,10.0,15.0,-999,-99.99,,,-99.99,,2013-02-27 03:42:00,
2013-02-26 22:52:00,65.0,-99.9,29.68,SW,230,9.0,16.0,-999,-99.99,,,-99.99,,2013-02-27 03:52:00,
2013-02-26 23:02:00,65.0,-99.9,29.69,SW,228,14.0,26.0,-999,-99.99,,,-99.99,,2013-02-27 04:02:00,
2013-02-26 23:12:00,65.0,-99.9,29.69,SW,236,13.0,21.0,-999,-99.99,,,-99.99,,2013-02-27 04:12:00,
2013-02-26 23:22:00,65.0,-99.9,29.69,SW,231,12.0,16.0,-999,-99.99,,,-99.99,,2013-02-27 04:22:00,
2013-02-26 23:32:00,65.0,-99.9,29.68,SW,235,10.0,16.0,-999,-99.99,,,-99.99,,2013-02-27 04:32:00,
2013-02-26 23:42:00,64.0,-99.9,29.68,SW,220,9.0,15.0,-999,-99.99,,,-99.99,,2013-02-27 04:42:00,
2013-02-26 23:52:00,64.0,-99.9,29.69,SW,228,9.0,15.0,-999,-99.99,,,-99.99,,2013-02-27 04:52:00,